Location: Wien
(48.2082°N, 16.3738°E)
Time: 12:32:18
(UTC+02:00)

Tiros 1 despin weight - Pass Details

Date: 12 September 2024
Orbit: 573 x 615 km, 48.2° (Epoch: 06 October)

Event Time Altitude Azimuth Distance (km) Brightness Sun altitude
Rises 10:21:17 0° 284° (WNW) 2,891 ? 35.4°
Reaches altitude 10° 10:23:42 10° 278° (W) 1,980 ? 35.7°
Maximum altitude 10:27:59 42° 208° (SSW) 880 ? 36.2°
Drops below altitude 10° 10:32:13 10° 137° (SE) 1,954 ? 36.7°
Sets 10:34:35 0° 131° (SE) 2,848 ? 37.0°
